Weather in Solyanka

Russia / Tyumen Oblast     59°26′02″N   68°58′40″E
temp.,
°C
wind,
m/s
gust,
m/s
humid.,
%
clouds,
%
prec.,
mm/h
press.,
hPa
HPBL,
m
14 april, wed
wed1423:00+5wsw41480100 0.0 1029346
02:00+5sw51682100 0.0 1026487
05:00+5wsw51481100 0.0 1024437
08:00+7w4138068 0.0 1023624
11:00+11wnw5977100 0.0 1024869
14:00+10wnw3783100 0.0 1025699
17:00+11w3778100 0.1 1025901
20:00+9sw2389100 0.0 102457
15 april, thu
thu1523:00+8ssw3791100 0.0 1022136
02:00+6sw389372 0.0 1020168
05:00+5sw39945 0.0 1020188
08:00+10sw413825 0.0 1018394
11:00+14wsw611585 0.0 1016759
14:00+18wsw612495 0.0 10141498
17:00+18wsw511465 0.0 10131555
20:00+12sw3107256 0.0 1011182
16 april, fri
fri1623:00+7nne51187100 0.8 1012462
02:00+4n4992100 4.1 1014597
05:00+3nnw4878100 4.8 1015765
08:00+3n5873100 0.0 10191100
11:00+2n6851100 0.1 10221514
14:00+2n68405 0.0 10251716
17:00+1nne56370 0.0 10261438
20:00−2nne22545 0.0 102741
17 april, sat
sat1723:00−3ese25605 0.0 1027194
02:00−4s375562 0.0 1024359
05:00−4s41054100 0.0 1022526
08:00−1ssw61252100 0.0 1018699
11:000wsw51077100 0.5 10151086
14:00+3nw5854100 1.4 10131563
17:000nnw711442 1.9 10161642
20:00−4nnw510491 0.0 10181157
18 april, sun
sun1823:00−6nnw49515 0.0 10191180
02:00−7nnw48505 0.0 10191044
05:00−8nnw49505 0.0 10201023
08:00−7n68370 0.0 10211204
11:00−5n69325 0.0 10211689
14:00−3n71031100 0.0 10222300
17:00−3n61138100 0.0 10252417
20:00−5n5114710 0.0 10261481